Location: ??
(35.5052°N, 139.7262°E)
Time: 18:22:49
(UTC+00:00)

Cosmos 1025 Rocket - Pass Details

Date: 20 June 2021
Orbit: 593 x 619 km, 82.5° (Epoch: 30 July)

Event Time Altitude Azimuth Distance (km) Brightness Sun altitude
Exits shadow 12:19:30 23° 221° (SW) 1,333 4.6 -22.0°
Maximum altitude 12:21:51 43° 280° (W) 872 4.1 -22.3°
Drops below altitude 10° 12:26:02 10° 352° (N) 1,976 6.5 -22.8°
Sets 12:28:21 0° 359° (N) 2,881 7.4 -23.0°
